Home > Time Zones > World Clock > Weather > Yemen > Aden > Past weeks

Flag for Yemen Weather past 2 weeks in Aden, Yemen

Now
77 °F

Clear.


Feels Like: 78 °F
Forecast: 77 / 92 °F
Wind: No wind

Location: Aden

Current Time: Oct 26, 2014 at 2:12:36 AM

Latest Report: Oct 26, 2014 at 1:00 AM


Visibility: 10 mi

Pressure: 29.83 "Hg

Humidity: 42%

Dew point: 52 °F

Location of AdenLocation

Historic Weather in Aden — Graph

°F

Aden temperature yesterday

Maximum temperature yesterday: 99 °F (at 12:00 PM)
Minimum temperature yesterday: 77 °F (at 6:00 AM)
Average temperature yesterday: 85 °F

Past Weeks' High & Low Weather Summary

 TemperatureHumidityPressure
High99 °F (Oct 25, 12:00 PM)70% (Oct 25, 5:00 PM)30.01 "Hg (Oct 25, 5:00 PM)
Low77 °F (Oct 19, 6:00 AM)2% (Oct 25, 1:00 PM)29.74 "Hg (Oct 25, 3:00 PM)
Average85 °F39%29.88 "Hg
* Reported Oct 11 1:00 AM — Oct 26 1:00 AM, Aden, Weather by CustomWeather, © 2014

Note: Actual official high and low records may vary slightly from our data, if they occured in-between our weather recording intervals... More about our weather records

Advertising

Aden weather history for previous 24 hours

 ConditionsComfort  
Time TempWeatherWind HumidityBarometerVisibility
1:00 AM
Oct 26
77 °FClear.No wind42%29.83 "Hg10 mi
12:00 AM81 °FClear.No wind45%29.83 "Hg10 mi
11:00 PM
Oct 25
82 °FClear.No wind45%29.86 "Hg10 mi
10:00 PM84 °FClear.No wind40%29.86 "Hg10 mi
9:00 PM84 °FClear.3 mph70%29.86 "Hg10 mi
8:00 PM86 °FClear.3 mph35%29.83 "Hg10 mi
7:00 PM86 °FClear.8 mph33%29.80 "Hg10 mi
6:00 PM88 °FClear.12 mph31%29.80 "Hg10 mi
5:00 PM84 °FScattered clouds.7 mph70%29.80 "HgN/A
4:00 PM90 °FSunny.17 mph31%29.74 "Hg10 mi
3:00 PM91 °FSunny.18 mph26%29.74 "Hg10 mi
2:00 PM99 °FSunny.12 mph25%29.77 "Hg10 mi
1:00 PM99 °FSunny.15 mph2%29.80 "Hg10 mi
12:00 PM99 °FSunny.7 mph6%29.83 "Hg10 mi
11:00 AM79 °FSunny.7 mph9%29.89 "Hg10 mi
10:00 AM91 °FSunny.8 mph18%29.89 "Hg10 mi
9:00 AM88 °FSunny.8 mph27%29.92 "Hg10 mi
8:00 AM84 °FSunny.8 mph18%29.92 "Hg10 mi
7:00 AM79 °FSmoke.5 mph26%29.89 "HgN/A
6:00 AM77 °FSunny.6 mph34%29.86 "Hg10 mi
5:00 AM81 °FClear.6 mph30%29.86 "Hg10 mi
4:00 AM79 °FSmoke.No wind34%29.86 "HgN/A
3:00 AM79 °FClear.3 mph42%29.86 "Hg10 mi
2:00 AM81 °FClear.No wind42%29.86 "Hg10 mi
Weather by CustomWeather, © 2014

See weather overviewHow to use our weather pages